234  
NZUS99 KDVN 141410  
HRRRRR  
HOURLY WEATHER ROUNDUP  
NATIONAL WEATHER SERVICE QUAD CITIES IA IL  
900 AM CDT FRI MAY 14 2021  
 
NOTE: "FAIR" INDICATES FEW OR NO CLOUDS BELOW 12,000 FEET WITH  
NO SIGNIFICANT WEATHER AND/OR OBSTRUCTIONS TO VISIBILITY.  
------------------------------------------------------------------  
 
CITY SKY/WX TMP DP RH WIND PRES REMARKS  
BURLINGTON MOSUNNY 57 39 51 S7 30.33S  
CEDAR RAPIDS MOSUNNY 57 36 45 S13 30.30S  
DAVENPORT MOSUNNY 62 36 37 S9 30.35F  
DUBUQUE MOSUNNY 59 33 37 S12 30.32F  
IOWA CITY MOSUNNY 58 34 40 S9 30.33F  
MOLINE MOSUNNY 63 37 38 SW9 30.33F  
------------------------------------------------------------------  
THE STATIONS BELOW ARE NOT NWS STATIONS AND ARE NOT SUBJECT TO NWS  
QUALITY CONTROL. SOME STATIONS DO NOT REPORT WEATHER SUCH AS FOG.  
* - STATIONS THAT REPORT TMP AND DP IN WHOLE DEGREES CELSIUS, WHICH  
ARE THEN CONVERTED TO FAHRENHEIT.  
------------------------------------------------------------------  
 
CITY SKY/WX TMP DP RH WIND PRES REMARKS  
CLINTON MOSUNNY 60 37 42 S6 30.34F  
FAIRFIELD * SUNNY 57 36 44 S13 30.32S  
FORT MADISON * MOSUNNY 57 41 54 S5 30.34S  
FREEPORT SUNNY 61 34 36 W6 30.36S  
INDEPENDENCE MOSUNNY 59 33 37 S12 30.29F  
KEOKUK * MOSUNNY 57 41 54 SW8 30.34R  
MACOMB MOSUNNY 60 36 40 S6 30.36F  
MONTICELLO * MOSUNNY 59 34 38 S8 30.31S  
MT PLEASANT * MOSUNNY 59 41 51 CALM 30.33S  
MUSCATINE * MOSUNNY 57 43 58 S3 30.34S  
SAVANNA * SUNNY 57 37 47 CALM 30.34F  
STERLING/R.F. SUNNY 61 34 36 SW3 30.35S  
VINTON MOSUNNY 62 34 34 S8 30.30S  
WASHINGTON * MOSUNNY 61 39 44 S14 30.30F  
------------------------------------------------------------------  
 
 
CLICK HERE TO GO TO PREVIOUS BULLETINS.

The Nexlab IL Page
The Nexlab IA Page
The Nexlab MO Page Main Text Page